Temp_Advection
nan nan nan nan nan nan nan nan nan nan nan nan nan nan nan nan nan nan nan nan nan nan nan nan nan nan nan nan nan nan nan nan nan nan nan nan nan nan nan nan nan nan nan nan
nan -0 -0 -0 -0 -1 -1 -0 -0 -0 -1 -0 -0 -1 -0 -1 -1 -1 -1 -0 -0 -1 -0 -0 -0 -1 -1 -1 -1 0 -1 -0 -1 -0 0 -3 -2 -2 -2 -1 -1 0 1 nan
nan -0 -0 -0 -0 -1 -1 -0 -0 -1 -2 -0 -0 -1 -1 -1 -1 -0 -1 -0 -1 -0 -0 -0 -0 -1 -1 -0 -1 -1 -0 -0 -0 -0 -1 0 -0 -1 -2 -1 -0 -1 -1 nan
nan -0 -0 -0 -0 -0 -0 -0 -0 -1 -0 -0 -0 -1 -1 -1 -1 -1 -1 -1 -1 -0 0 -0 -0 -0 -1 -1 -1 -1 -0 -0 -0 -0 -0 -1 -1 -0 -1 -1 -1 -1 -0 nan
nan -0 -0 -0 -0 -0 -1 -0 -0 -1 -0 -0 -0 -1 -0 -0 -0 -0 -0 -0 -1 -0 0 0 -0 -0 -0 -0 -1 -0 -0 -0 -0 -0 -0 -1 -1 -0 -0 -0 -1 -1 -0 nan
nan -1 -0 -0 -0 -1 -1 -0 -0 -1 -0 -0 -0 -0 -0 -0 -0 -0 0 0 -0 -0 0 0 -0 -1 -1 0 0 -0 -0 -0 -0 -0 0 0 -0 0 0 -0 -0 -0 -0 nan
nan -0 -0 -0 -1 -1 -0 -1 -1 -1 -0 -0 -0 -0 0 0 0 -0 -1 0 -0 -0 0 0 0 0 -0 0 0 0 0 -0 -0 -0 -0 -1 0 0 -0 -1 -0 -0 -0 nan
nan -0 -1 -1 -1 -1 -1 -1 -1 -1 -0 -0 -0 -0 -0 -0 -0 0 -0 -0 0 0 0 -0 -0 -0 -0 -0 -0 -0 -0 -0 -0 -0 -0 -0 -0 -0 0 0 0 -0 0 nan
nan -0 -1 -1 -1 -1 -1 -1 -1 -1 -1 -0 0 -0 -1 -0 -0 -1 -0 -0 -0 1 0 -0 -0 -1 -0 -1 -2 -1 -1 -2 -0 -0 -0 -0 -0 -0 0 0 -0 -0 0 nan
nan -1 -1 -1 -1 -0 -0 -1 -1 -1 -2 0 0 -0 -0 -0 0 -0 -0 -0 -1 -1 -0 -0 -0 -0 0 -0 -1 -1 -1 -1 -0 -1 -0 -0 -0 -1 -0 -0 0 0 0 nan
nan -1 -1 -0 -0 -0 -1 -1 -0 -3 -3 -1 -0 0 0 0 0 -0 -1 0 -0 -1 -0 -0 -0 -0 0 -0 0 -0 -0 -0 -0 -1 -0 0 0 -0 -0 0 -0 -0 -0 nan
nan -1 -0 -0 -0 0 -0 -0 -0 -1 -2 -1 -0 0 0 0 0 0 -0 -0 -0 -0 -0 0 -0 -0 -0 -0 0 0 -0 -0 -0 0 -0 -0 0 0 -0 0 -0 -0 0 nan
nan -0 -0 -0 0 -0 -0 -0 -0 -0 -1 -0 0 0 0 0 1 0 -0 0 0 0 0 0 -0 -0 0 0 -0 0 -0 -0 -0 0 -0 -1 -0 0 0 0 0 0 0 nan
nan -0 -0 0 -0 -0 -0 -0 -0 -0 -0 -0 -0 0 0 0 0 0 0 -0 0 0 0 -1 -0 0 0 0 -0 0 0 0 0 -0 -0 0 -0 0 0 0 1 0 0 nan
nan -0 0 -0 -0 -0 0 -0 -0 -0 -0 -0 -0 -0 0 0 -0 0 -0 -0 0 0 -0 -1 0 0 -0 -0 0 1 0 0 0 -0 0 0 -0 0 1 0 -0 0 0 nan
nan 0 -0 -0 -0 -0 -0 -0 -0 -0 -0 -0 -0 0 0 0 -0 -0 -0 0 -0 -0 -0 -0 0 -0 0 0 0 0 0 -0 0 -0 -0 0 -0 -0 0 0 0 0 0 nan
nan 0 -0 -0 -0 -0 -1 -0 -0 -0 -0 -0 -0 -0 0 -1 -1 -0 -0 -0 -0 -0 -0 0 0 0 0 0 -0 -1 0 -0 -0 -0 -0 -0 -0 0 -0 -1 -0 -0 0 nan
nan -0 0 -0 -0 -0 -0 -0 -0 -0 -0 -1 -0 -1 -0 -1 -0 -0 -0 -0 -0 -0 -0 -0 -0 0 0 0 0 -1 -0 0 -0 -0 -0 -0 -1 -0 -0 -0 -0 -0 -1 nan
nan 0 -0 -0 -0 -0 -0 -0 -0 -0 -1 -1 -1 -0 -0 -1 -1 -0 -0 -0 -0 -0 -0 -0 -0 -0 0 0 -0 -0 -1 -0 -0 -0 -0 -0 -0 -1 -1 -1 -0 -0 -1 nan
nan -0 -0 -0 0 0 0 -0 -0 -0 -1 -1 -1 0 -0 -1 -1 -0 -1 -0 -0 -0 -0 -0 -0 0 0 -0 -0 -0 -0 -1 -0 -1 -1 -1 -0 -0 -1 -1 -1 -0 -0 nan
nan -0 -0 -0 -0 -0 -0 -1 -0 -1 -1 -0 -0 -0 0 -0 -0 -0 -0 -0 -0 0 0 0 -0 0 -0 -0 -0 -0 -0 -0 -0 -0 -1 -1 -1 -1 -1 -1 -1 -1 -1 nan
nan -0 -0 -0 -0 -1 -2 -0 -0 -1 -0 -0 -0 0 0 0 0 -0 0 0 -0 -0 0 0 0 0 -0 -0 -0 -0 -0 -0 -0 -0 -0 -0 -0 -0 -0 -1 -1 -1 -1 nan
nan -0 -1 -1 -2 -2 -1 -0 -0 -0 0 -0 -0 -0 -0 0 0 0 -0 0 -0 -1 -0 -0 -0 0 -0 0 0 -0 -0 -0 -0 -0 -0 -0 -0 -0 0 -0 -0 -0 -0 nan
nan -1 -1 -0 -0 0 0 0 -0 0 1 0 0 0 -0 0 -0 0 0 -0 -0 0 0 -0 -0 -0 0 0 0 0 -0 -0 -0 -0 -0 -0 -0 -1 -0 0 -0 -0 -0 nan
nan -1 -1 0 0 0 0 1 0 0 1 0 0 -0 -0 0 -0 -0 0 0 0 0 0 -0 -1 0 0 0 0 0 0 0 -0 0 -0 -0 -0 -0 -1 -0 -0 -1 -1 nan
nan -1 -0 0 -0 -1 -1 -0 0 1 1 0 0 0 -0 0 0 0 0 -0 0 -0 -1 1 -0 -0 -0 0 0 0 0 0 -0 -0 -0 -0 -0 0 -0 -0 -0 -0 -0 nan
nan nan nan nan nan nan nan nan nan nan nan nan nan nan nan nan nan nan nan nan nan nan nan nan nan nan nan nan nan nan nan nan nan nan nan nan nan nan nan nan nan nan nan nan
Wind_Speed
23 23 23 24 25 24 17 6 1 20 13 2 5 4 7 17 17 18 7 8 8 9 10 6 6 8 12 28 19 11 6 5 6 6 6 3 7 6 7 5 5 7 5 3
20 21 22 23 23 23 13 4 4 13 12 4 3 8 5 11 14 12 8 6 8 12 5 6 8 11 16 28 21 17 10 3 5 3 2 12 9 16 8 6 4 2 3 5
19 21 22 22 19 18 10 4 2 9 15 7 4 5 6 9 15 4 10 4 8 11 5 5 6 9 8 21 21 23 6 5 4 1 4 2 6 20 18 3 2 3 4 17
22 23 23 22 18 14 6 6 4 5 4 7 6 8 5 6 9 9 12 6 10 12 4 7 5 6 10 11 22 13 4 4 8 11 12 21 19 17 19 24 9 4 11 15
22 23 22 21 20 12 14 4 4 7 5 9 7 10 5 6 6 3 5 3 14 11 3 0 6 8 5 3 9 9 10 4 5 4 9 24 20 22 14 13 13 15 17 12
23 24 25 23 21 16 9 8 8 5 10 5 2 3 5 5 9 7 11 7 7 7 4 14 25 20 15 3 2 7 8 2 3 1 3 4 9 17 15 10 15 4 5 5
25 26 25 26 26 23 12 11 8 5 2 4 0 4 6 5 4 3 11 10 4 7 31 25 6 10 11 6 6 8 11 7 4 3 7 7 3 2 3 12 10 11 11 7
28 28 28 29 28 24 17 8 5 4 3 8 5 14 5 12 5 2 5 8 13 24 17 4 6 4 6 3 7 15 12 5 2 3 5 5 2 5 5 6 5 4 3 3
27 28 29 28 28 23 17 19 12 7 8 8 8 5 11 3 4 5 3 13 12 16 3 4 5 5 4 7 15 13 15 14 4 4 5 5 3 7 9 5 2 2 4 5
23 24 26 26 25 23 20 22 11 8 12 10 11 6 4 8 7 3 3 13 15 20 5 3 4 3 2 5 7 7 8 6 8 7 4 1 3 13 11 3 2 3 2 4
23 24 23 21 22 20 19 22 15 22 14 14 14 15 11 7 6 3 10 7 7 8 5 4 2 3 1 2 3 2 3 3 3 5 6 5 8 8 4 3 7 7 7 8
21 21 22 21 16 19 19 17 16 20 18 9 13 17 18 16 11 7 8 3 3 4 2 4 3 3 4 1 4 2 4 3 2 4 4 5 10 7 8 8 9 10 10 12
22 22 20 18 18 14 17 18 10 7 8 10 11 10 14 19 19 15 4 5 6 5 5 3 1 5 1 3 2 2 1 5 1 5 4 7 10 10 11 11 14 15 15 16
18 20 19 17 17 14 10 18 16 7 5 3 4 15 12 14 19 18 13 7 6 7 8 6 3 3 5 1 1 1 1 1 4 5 5 17 1 12 16 17 18 20 20 20
17 18 16 15 15 16 9 10 20 12 3 3 3 4 20 13 10 16 16 12 8 6 5 4 1 2 2 2 2 5 14 4 3 3 16 10 22 24 27 28 25 22 22 24
16 16 13 14 14 17 8 8 12 12 4 3 2 2 13 16 7 8 9 11 9 7 4 3 3 3 1 2 3 10 14 20 20 12 23 26 30 27 17 24 27 26 26 26
12 12 9 13 12 14 12 7 12 8 3 2 3 2 7 21 11 8 8 9 7 5 3 4 2 2 2 1 2 24 23 23 25 17 25 23 14 26 32 31 28 26 26 26
9 8 6 10 10 10 12 12 16 11 6 7 3 5 5 20 8 8 12 7 4 7 3 3 4 4 1 2 11 27 22 29 24 25 25 27 28 29 30 26 26 27 28 28
7 6 7 7 12 8 8 8 10 13 11 6 6 4 4 15 10 7 7 5 2 4 4 2 3 1 3 6 25 27 31 25 31 32 28 23 26 27 27 28 29 30 33 32
8 8 5 6 10 10 7 6 8 8 9 7 5 7 3 11 8 4 11 5 1 2 1 6 1 2 4 18 26 26 29 30 31 32 33 33 31 31 31 30 28 27 30 32
5 4 6 8 12 9 7 9 9 9 5 8 7 9 6 8 3 3 7 2 3 2 3 2 1 1 10 28 31 29 29 29 30 28 29 28 28 31 32 33 31 30 29 30
9 6 8 9 9 9 8 4 6 6 2 11 8 12 7 5 4 3 5 1 2 2 7 1 2 0 25 34 33 35 33 33 33 32 32 29 29 29 29 29 29 28 29 29
7 6 6 7 10 9 6 8 5 4 12 11 18 8 8 5 4 4 2 5 2 9 2 0 2 22 32 36 36 36 35 34 32 37 34 31 31 30 29 30 28 28 29 28
7 7 8 4 5 4 2 2 7 11 14 22 18 7 4 4 4 2 3 3 2 5 5 3 9 32 38 37 37 37 37 36 35 37 34 33 33 32 30 31 31 30 29 29
6 6 5 3 3 8 11 14 14 14 19 12 6 5 3 2 3 1 3 8 4 2 3 5 32 39 38 39 39 38 38 37 37 38 34 34 32 32 33 31 32 29 28 29
7 8 6 6 5 15 18 20 21 23 18 8 4 3 4 4 1 6 4 4 3 5 16 35 38 39 40 40 41 41 38 37 38 36 34 34 30 30 33 31 32 33 26 28
6 6 13 12 8 12 14 18 22 20 14 7 5 6 2 6 4 5 2 2 7 31 37 36 37 39 41 40 41 40 39 41 38 36 36 34 30 30 31 32 36 33 27 29
Wind_Direction
347 352 353 353 352 357 6 50 354 4 7 29 16 28 350 341 360 8 329 344 347 348 342 289 301 352 360 9 7 345 279 284 291 280 337 19 59 15 215 218 199 214 104 134
0 0 0 359 359 1 16 57 28 11 33 49 4 357 346 350 3 6 354 327 3 359 296 302 21 355 339 3 8 338 347 19 316 261 170 27 39 351 311 285 276 212 193 171
11 9 6 4 5 7 48 24 6 28 56 58 340 10 0 345 348 17 352 337 356 338 320 13 311 340 343 352 356 353 48 27 19 32 336 269 32 3 352 333 337 67 24 135
17 13 12 13 14 18 66 55 58 23 9 9 355 20 34 325 0 353 357 357 5 340 296 329 7 358 325 337 351 351 32 70 76 104 90 72 50 36 12 42 19 38 132 115
26 25 25 22 18 26 52 62 25 57 37 341 350 11 21 343 338 329 326 354 327 314 267 113 311 343 18 28 324 3 338 125 153 148 103 72 50 29 32 19 33 64 81 73
35 33 32 31 32 41 67 80 84 105 16 12 18 347 323 321 343 276 258 330 304 314 355 310 284 274 274 267 336 340 338 318 246 217 237 310 21 14 29 44 38 359 63 83
42 41 39 39 38 40 56 77 92 82 17 36 25 350 314 310 292 247 296 312 297 299 314 311 283 249 245 218 298 15 326 314 339 348 348 49 249 337 41 73 36 43 63 52
44 42 41 41 41 40 40 58 94 105 89 323 359 346 332 323 2 252 246 306 307 317 318 329 20 22 29 343 7 359 347 295 63 87 45 165 113 17 3 8 45 23 48 40
43 41 40 40 40 39 43 63 78 100 120 5 317 326 350 342 333 327 265 334 341 346 270 17 38 33 301 336 338 352 343 7 48 42 62 47 7 352 356 321 68 68 17 3
41 38 40 42 43 41 47 58 65 90 95 30 33 25 306 332 304 254 313 340 348 4 5 56 26 23 199 6 7 335 338 350 32 27 86 14 322 316 312 28 261 342 306 307
38 36 36 38 41 40 33 62 66 85 96 67 54 45 36 355 349 352 319 342 10 356 44 45 5 50 290 69 217 304 3 359 8 347 46 357 358 336 74 255 299 279 289 299
29 27 28 28 32 39 38 57 62 71 81 89 56 41 33 28 16 355 27 77 38 1 342 14 38 27 5 209 7 340 23 156 223 128 217 259 304 264 280 286 283 291 294 292
17 15 20 19 20 26 36 41 38 58 83 69 41 18 26 33 33 32 41 43 25 27 43 353 156 77 8 22 355 298 179 177 234 17 278 266 292 295 305 302 293 302 292 285
10 10 8 14 12 14 30 34 34 49 98 105 61 33 28 23 36 37 37 45 59 44 34 49 47 87 8 1 229 341 271 240 307 269 316 340 115 329 321 308 300 297 298 292
1 7 10 14 11 9 21 32 33 35 57 80 136 33 26 14 13 27 32 45 51 29 44 40 53 79 44 193 40 45 357 340 345 280 307 284 289 314 311 308 309 309 303 297
357 6 14 16 18 11 22 18 14 12 54 91 120 93 30 19 16 18 24 25 45 58 65 83 47 23 332 57 25 10 343 354 324 285 300 302 306 306 320 312 317 312 302 297
358 5 13 17 25 28 52 49 1 24 45 76 113 112 11 12 20 359 18 21 38 61 74 63 23 13 321 70 350 347 332 352 340 338 332 313 316 310 311 312 314 312 305 303
5 15 26 23 26 38 42 35 26 23 56 57 49 322 317 8 358 3 3 5 17 38 62 48 11 307 7 40 357 345 343 343 345 332 329 315 317 316 319 319 318 312 309 312
34 46 41 24 22 20 6 19 31 43 54 83 64 354 315 345 9 345 347 359 22 34 43 41 332 174 44 359 352 347 346 336 334 336 332 328 323 320 320 320 317 314 312 313
54 39 34 32 2 3 12 20 14 29 39 53 81 348 310 336 338 13 2 7 41 25 320 333 285 92 30 358 350 343 342 340 339 336 334 331 326 327 325 323 319 313 310 312
49 44 47 19 20 25 31 26 29 3 50 18 10 12 328 341 8 322 357 312 315 26 312 63 298 88 360 351 346 343 340 338 336 335 330 327 324 324 324 323 322 321 320 317
75 85 55 25 28 25 44 358 7 38 11 353 359 335 335 317 335 294 347 327 344 338 328 10 24 323 352 345 341 338 338 335 336 333 333 332 331 330 326 325 325 325 323 322
56 48 48 23 21 31 43 354 330 336 347 349 340 327 331 335 340 294 327 19 288 312 335 251 194 349 342 339 336 334 334 334 334 332 337 335 333 335 336 334 333 331 330 332
52 45 28 64 2 27 8 288 299 302 310 323 327 307 323 323 325 321 15 267 45 13 0 298 339 334 331 332 333 332 331 333 332 331 336 335 334 334 337 343 336 334 330 329
64 55 58 64 42 4 353 354 349 330 334 326 329 295 308 297 353 314 6 2 342 8 296 308 324 323 324 326 329 330 328 329 328 332 333 330 336 338 335 334 338 331 330 335
57 59 68 87 29 10 13 3 355 352 355 351 345 300 23 9 9 16 4 10 283 307 324 315 318 320 321 324 325 327 326 328 327 333 329 329 332 338 340 332 328 338 334 335
58 68 89 101 57 28 15 8 360 2 7 9 348 40 300 304 8 349 14 344 309 310 310 312 315 316 319 323 324 326 327 327 331 328 329 331 330 325 327 340 336 337 332 328
Height
1479 1474 1469 1464 1458 1453 1449 1450 1452 1452 1448 1446 1447 1449 1453 1453 1448 1447 1444 1441 1439 1437 1437 1435 1429 1420 1415 1417 1413 1406 1391 1375 1356 1346 1355 1344 1346 1365 1344 1342 1338 1338 1382 1447
1479 1474 1469 1464 1459 1452 1449 1453 1456 1456 1449 1461 1460 1459 1456 1456 1455 1453 1451 1451 1449 1447 1444 1441 1428 1430 1425 1423 1417 1414 1400 1397 1376 1340 1353 1364 1392 1409 1393 1377 1350 1333 1336 1451
1481 1476 1470 1464 1460 1456 1454 1457 1459 1459 1459 1470 1469 1472 1466 1464 1461 1459 1459 1455 1451 1450 1449 1439 1442 1437 1427 1427 1424 1413 1408 1421 1415 1401 1429 1421 1424 1425 1410 1388 1356 1382 1419 1441
1483 1478 1474 1469 1463 1459 1457 1459 1469 1471 1477 1474 1475 1475 1477 1475 1469 1465 1462 1460 1462 1458 1455 1451 1447 1443 1437 1431 1429 1424 1421 1432 1435 1438 1438 1435 1439 1434 1435 1419 1411 1403 1440 1449
1488 1482 1476 1473 1466 1462 1460 1466 1469 1474 1480 1479 1476 1481 1484 1480 1476 1474 1469 1470 1464 1460 1459 1455 1453 1452 1450 1451 1438 1435 1431 1434 1435 1443 1432 1432 1446 1448 1443 1443 1438 1447 1451 1461
1491 1486 1481 1477 1472 1464 1464 1470 1473 1474 1487 1481 1479 1492 1487 1482 1482 1474 1473 1472 1468 1459 1457 1455 1451 1451 1451 1451 1454 1447 1440 1433 1423 1415 1422 1420 1453 1463 1461 1462 1458 1457 1460 1470
1496 1490 1486 1481 1476 1471 1470 1472 1474 1478 1492 1485 1490 1489 1485 1482 1482 1484 1473 1470 1467 1458 1453 1445 1442 1445 1448 1450 1451 1449 1445 1436 1422 1419 1423 1462 1475 1473 1468 1465 1470 1472 1472 1475
1500 1496 1490 1485 1482 1479 1475 1475 1475 1480 1493 1492 1489 1487 1484 1479 1477 1477 1473 1468 1465 1458 1449 1445 1450 1449 1454 1452 1452 1450 1444 1432 1432 1444 1457 1472 1472 1474 1474 1473 1476 1479 1479 1476
1505 1502 1495 1491 1488 1485 1483 1478 1477 1478 1485 1499 1496 1490 1488 1488 1483 1475 1470 1467 1462 1458 1455 1454 1473 1488 1495 1481 1464 1455 1447 1436 1429 1437 1454 1468 1479 1477 1476 1475 1471 1478 1479 1479
1510 1505 1500 1497 1495 1491 1488 1484 1482 1481 1490 1501 1497 1497 1497 1492 1488 1483 1473 1471 1464 1462 1460 1471 1482 1493 1491 1499 1503 1495 1474 1475 1468 1455 1480 1488 1483 1478 1475 1473 1488 1480 1481 1479
1513 1510 1505 1502 1499 1497 1494 1489 1488 1488 1492 1501 1500 1499 1498 1495 1493 1491 1478 1475 1477 1475 1478 1481 1491 1497 1498 1499 1509 1509 1505 1509 1499 1487 1499 1502 1483 1477 1480 1485 1480 1480 1479 1478
1516 1514 1509 1505 1504 1500 1497 1493 1494 1492 1492 1503 1502 1501 1500 1498 1495 1490 1487 1491 1491 1491 1489 1489 1488 1496 1498 1507 1507 1500 1506 1514 1515 1508 1503 1487 1485 1484 1483 1482 1480 1478 1476 1475
1519 1516 1512 1509 1507 1503 1501 1498 1496 1495 1497 1503 1503 1503 1503 1500 1496 1494 1493 1492 1493 1493 1492 1491 1493 1506 1504 1507 1507 1502 1504 1504 1506 1499 1489 1485 1482 1481 1480 1479 1476 1474 1473 1471
1521 1517 1514 1511 1508 1505 1503 1500 1498 1498 1499 1502 1509 1506 1504 1502 1499 1497 1496 1495 1495 1495 1493 1494 1498 1505 1504 1509 1509 1505 1504 1502 1500 1496 1486 1480 1479 1478 1477 1475 1473 1470 1468 1466
1521 1518 1516 1513 1510 1507 1504 1502 1501 1501 1504 1504 1507 1508 1506 1503 1502 1500 1499 1497 1496 1496 1496 1499 1508 1505 1506 1505 1507 1505 1506 1501 1499 1497 1488 1488 1480 1477 1474 1471 1468 1466 1464 1461
1521 1519 1517 1515 1512 1508 1505 1504 1504 1504 1503 1505 1507 1510 1509 1507 1505 1504 1503 1501 1499 1499 1502 1505 1507 1507 1508 1508 1505 1508 1505 1503 1499 1492 1487 1483 1478 1474 1471 1467 1465 1462 1459 1456
1521 1520 1519 1517 1514 1512 1509 1513 1511 1506 1505 1506 1509 1510 1510 1508 1505 1505 1504 1503 1502 1502 1505 1507 1508 1508 1509 1507 1511 1505 1501 1498 1493 1489 1485 1478 1474 1470 1467 1463 1459 1457 1453 1450
1521 1521 1520 1519 1517 1515 1514 1514 1511 1508 1508 1509 1516 1516 1512 1511 1510 1508 1506 1505 1505 1506 1508 1510 1510 1509 1508 1513 1510 1506 1499 1495 1491 1487 1483 1477 1470 1466 1462 1459 1455 1450 1446 1443
1522 1522 1521 1520 1518 1517 1518 1516 1514 1513 1514 1517 1527 1533 1525 1517 1516 1514 1510 1509 1508 1510 1511 1512 1513 1507 1513 1513 1509 1503 1498 1493 1486 1481 1477 1472 1468 1462 1458 1453 1448 1444 1438 1436
1524 1523 1523 1524 1524 1521 1520 1518 1517 1516 1520 1525 1534 1535 1532 1529 1521 1517 1516 1513 1514 1514 1516 1513 1512 1513 1514 1513 1509 1504 1498 1492 1486 1478 1470 1466 1461 1457 1452 1448 1444 1440 1435 1430
1527 1527 1528 1528 1526 1524 1524 1525 1525 1528 1532 1537 1537 1536 1535 1531 1530 1526 1524 1522 1517 1516 1518 1516 1513 1513 1513 1509 1505 1500 1495 1489 1484 1480 1474 1468 1461 1454 1448 1442 1438 1434 1430 1425
1530 1530 1531 1530 1531 1532 1535 1540 1538 1540 1548 1543 1540 1538 1535 1534 1531 1530 1526 1526 1521 1521 1518 1517 1512 1513 1511 1506 1500 1495 1490 1485 1479 1474 1468 1462 1456 1451 1445 1439 1433 1428 1424 1419
1532 1533 1535 1540 1547 1554 1560 1566 1560 1556 1551 1547 1544 1541 1538 1535 1533 1531 1530 1529 1527 1519 1517 1515 1515 1511 1509 1504 1498 1491 1487 1481 1475 1468 1463 1457 1451 1445 1440 1433 1429 1423 1419 1414
1536 1541 1553 1557 1568 1569 1569 1569 1565 1561 1555 1549 1546 1543 1542 1538 1536 1534 1535 1526 1525 1530 1532 1521 1514 1511 1506 1501 1496 1489 1482 1476 1471 1464 1457 1452 1446 1440 1435 1430 1425 1419 1414 1410
1544 1550 1567 1572 1573 1572 1570 1566 1562 1559 1553 1548 1545 1543 1543 1539 1539 1535 1535 1536 1540 1527 1528 1523 1517 1512 1505 1498 1492 1486 1479 1472 1466 1460 1453 1448 1442 1436 1430 1426 1421 1416 1411 1406
1554 1562 1570 1574 1574 1572 1569 1565 1562 1557 1551 1548 1547 1545 1546 1550 1549 1546 1548 1551 1546 1536 1530 1523 1516 1508 1502 1496 1489 1483 1476 1470 1462 1456 1450 1444 1439 1433 1427 1422 1417 1411 1407 1402
1565 1573 1575 1577 1577 1576 1573 1569 1564 1559 1554 1553 1552 1559 1560 1554 1555 1554 1548 1550 1545 1537 1527 1521 1515 1507 1498 1492 1485 1478 1471 1465 1458 1452 1446 1440 1434 1429 1424 1418 1413 1407 1402 1398